Regional Weather Roundup
Issued by NWS Cleveland, OH

Home | Current Version | Previous Version | Graphics & Text | Print | Product List | Glossary On
Versions: 1 2 3 4 5 6 7 8 9 10 11 12 13 14 15 16 17 18 19 20 21 22 23 24 25 26 27 28 29 30 31 32 33 34 35 36 37 38 39 40 41 42 43 44 45 46 47 48 49 50
000
ASUS41 KCLE 221112
RWRCLE
OHIO REGIONAL WEATHER ROUNDUP
NATIONAL WEATHER SERVICE WILMINGTON, OH
600 AM EST THU FEB 22 2018

NOTE: "FAIR" INDICATES FEW OR NO CLOUDS BELOW 12,000 FEET WITH NO
SIGNIFICANT WEATHER AND/OR OBSTRUCTIONS TO VISIBILITY.

OHZ001>008-015>018-024>027-034-035-043-044-221200-
   NORTHWEST OHIO

CITY           SKY/WX    TMP DP  RH WIND       PRES   REMARKS
DEFIANCE       MIX PCPN  32  27  81 E12G23    30.51F WCI  23
FINDLAY        FRZ RAIN  33  27  78 NE15      30.50S WCI  23
TOLEDO EXPRESS CLOUDY    32  28  85 E12       30.53F WCI  23
TOLEDO EXEC    CLOUDY    32  26  78 NE15      30.56F WCI  22
LIMA           FRZ RAIN  32  31  96 NE13      30.47S WCI  22
$$

OHZ009>014-019>023-028>033-038-089-221200-
   NORTHEAST OHIO

CITY           SKY/WX    TMP DP  RH WIND       PRES   REMARKS
CLE-HOPKINS    FLURRIES  33  30  88 NE10      30.56R WCI  25
CLE-LAKEFRONT  CLOUDY    34  27  75 NE10      30.55R WCI  26
CUY CO. ARPT   NOT AVBL
LORAIN-ELYRIA  CLOUDY    31  25  78 NE16      30.54S WCI  20
ASHTABULA      CLOUDY    32  28  85 NE5       30.56R WCI  27
AKRON-CANTON   LGT RAIN  34  30  85 NE12      30.48S WCI  25
WOOSTER        LGT RAIN  33  31  92 NE8       30.49S WCI  26
MANSFIELD      FRZ RAIN  32  31  96 NE12      30.47F FOG     WCI  23
YOUNGSTOWN     FRZ RAIN  33  31  92 NE7       30.51R WCI  27
$$

OHZ042-051>053-060>062-070>072-077>081-221200-
  SOUTHWEST OHIO

CITY           SKY/WX    TMP DP  RH WIND       PRES   REMARKS
CINC-COVINGTON RAIN      38  38 100 NE16      30.37R FOG
CINC-LUNKEN    RAIN      39  37  92 N10       30.41R
HAMILTON       LGT RAIN  40  32  73 NE10      30.40F
DAYTON         LGT RAIN  36  36 100 E16       30.42S
WRIGHT-PAT AFB LGT RAIN  38  34  86 NE14      30.42S
DAYTON GENERAL LGT RAIN  39  35  86 NE15      30.39R
WILMINGTON     LGT RAIN  36  36 100 NE18G26   30.38F
$$

OHZ036-037-039>041-045>050-054>059-063>069-073>076-082>088-221200-
  CENTRAL AND SOUTHEAST OHIO

CITY           SKY/WX    TMP DP  RH WIND       PRES   REMARKS
COLUMBUS       RAIN      37  34  89 NE9       30.43S
OSU AIRPORT    RAIN      36  34  92 NE12      30.44S
BOLTON FIELD   RAIN      36  34  92 NE13      30.43S
RICKENBACK AFB RAIN      37  36  98 NE13G18   30.42S
NEWARK         LGT RAIN  37  33  85 N7        30.43F
MARION         RAIN      33  31  92 NE13      30.48R FOG     WCI  24
LANCASTER      LGT RAIN  37  36  96 NE10      30.43S
ZANESVILLE     LGT RAIN  37  34  89 N8        30.43S
NEW PHILLY     RAIN      36  33  89 N6        30.49S FOG
$$



USA.gov is the U.S. government's official web portal to all federal, state and local government web resources and services.